Regional Weather Roundup
Issued by NWS Northern Indiana

Home | Current Version | Previous Version | Text Only | Print | Product List | Glossary On
Versions: 1 2 3 4 5 6 7 8 9 10 11 12 13 14 15 16 17 18 19 20 21 22 23 24 25 26 27 28 29 30 31 32 33 34 35 36 37 38 39 40 41 42 43 44 45 46 47 48 49 50
000
ASUS43 KIWX 231611
RWRIWX

KIWX WEATHER ROUNDUP
NATIONAL WEATHER SERVICE NORTHERN INDIANA
1200 PM EDT WED AUG 23 2017

NOTE: "FAIR" INDICATES FEW OR NO CLOUDS BELOW 12,000 FEET WITH NO
SIGNIFICANT WEATHER AND/OR OBSTRUCTIONS TO VISIBILITY.

* THESE STATIONS ARE NOT UNDER NWS QUALITY CONTROL. THEY ALSO MAY NOT
  REPORT WEATHER SUCH AS PRECIPITATION OR FOG.

INZ001>027-231700-
NORTHERN INDIANA

CITY           SKY/WX    TMP DP  RH WIND       PRES   REMARKS
GARY*          MOSUNNY   75  45  33 W10G23    30.05S
VALPARAISO     SUNNY     74  52  46 NW12      30.05R
MICHIGAN CITY* SUNNY     70  57  64 NW10G16   30.05R
LAPORTE*       SUNNY     72  55  54 W10G20    30.05R
KNOX*          SUNNY     72  55  56 NW10      30.04S
SOUTH BEND     MOSUNNY   72  54  53 NW16G24   30.03R
ELKHART*       MOSUNNY   72  50  46 NW12      30.02S
GOSHEN         PTSUNNY   73  53  49 W15       30.02S
MONTICELLO*    SUNNY     72  53  52 NW8       30.06S
LOGANSPORT*    SUNNY     70  54  56 NW8       30.07R
ROCHESTER*     SUNNY     73  54  49 W10G16    30.05S
WARSAW*        MOSUNNY   72  55  56 W13       30.03S
AUBURN*        MOSUNNY   72  52  49 NW10G18   30.03R
FORT WAYNE     MOSUNNY   73  55  53 W10       30.03S
HUNTINGTON*    MOSUNNY   71  54  53 NW7       30.04R
PERU/GRISSOM   MOSUNNY   72  56  57 NW13      30.05R
MARION*        SUNNY     70  55  60 NW7       30.06R

$$
INZ028>050-231700-
CENTRAL INDIANA

CITY           SKY/WX    TMP DP  RH WIND       PRES   REMARKS
LAFAYETTE      SUNNY     72  53  51 NW7       30.07R
KOKOMO*        SUNNY     71  56  58 NW9       30.07R
MUNCIE*        SUNNY     75  54  47 W3        30.05S
INDIANAPOLIS   MOSUNNY   75  51  43 NW10      30.06S

$$
MIZ043>046-050>051-056>058-064>065-071>073-077>080-231700-
SOUTHWEST LOWER MICHIGAN

CITY           SKY/WX    TMP DP  RH WIND       PRES   REMARKS
BATTLE CREEK   PTSUNNY   72  53  51 W20G25    30.00S
BENTON HARBOR  MOSUNNY   72  55  55 W13       30.03R
COLDWATER*     PTSUNNY   72  53  50 NW12G18   30.00S
HILLSDALE*     PTSUNNY   72  54  53 W12G20    29.99S
HOLLAND        MOSUNNY   70  55  59 NW12      30.01S
GRAND RAPIDS   MOSUNNY   71  53  52 NW17      29.99R
KALAMAZOO      MOSUNNY   74  51  44 NW17G24   30.01R
STURGIS*       PTSUNNY   71  55  55 NW8       30.00S
THREE RIVERS*  FAIR      73  53  50 NW13G18   30.01S

$$
OHZ001>008-015>018-024>025-231700-
NORTHWEST OHIO

CITY           SKY/WX    TMP DP  RH WIND       PRES   REMARKS
WAUSEON*       FAIR      73  55  53 NW12      29.99S
DEFIANCE       MOSUNNY   73  53  49 NW14G21   30.01R
FINDLAY        MOSUNNY   73  54  51 NW10      30.00S
TOLEDO EXPRESS MOSUNNY   72  55  55 W9G18     29.98S
TOLEDO METCALF MOSUNNY   74  55  51 W14G21    29.99S
LIMA           SUNNY     71  54  54 W10       30.02S

$$
AND FOR LAKE MICHIGAN COASTAL AND OPEN LAKE BUOY OBSERVATIONS

STATION/POSITION TEMP    WIND        PRES    VSBY  WAVE
                 AIR SEA DIR/SP/G                  HT/PER
                 (F)     (DEG/KT/KT) (MB)    (MI)  (FT/S)
CALUMET HARBOR    74     280/  5/ 11 1016.5R
MICHIGAN CITY     68     310/ 15/ 16   N/A
BURNS HARBOR      69     330/  8/ 12 1017.9R
SAINT JOSEPH      69     330/ 11/ 13 1017.3
SOUTH LAKE BUOY   65 71  350/ 14/ 16 1016.7R         4/ 5
4 MI NW BRIDGMAN  68 73  350/ 12/ 17 1017.0          4/ 5
MICHIGAN CITY     68 73  320/ 12/ 17   N/A           4/ 6

$$
&&



USA.gov is the U.S. government's official web portal to all federal, state and local government web resources and services.